"Pseudo-MPEC" for C10LPF5
Created 2025 Feb 6 18:31:03 UT using Find_Orb
Click here for an explanation of pseudo-MPECs
Astrometry:
C10LPF5* C2025 01 20.09435923 28 21.929+35 57 42.41 ~1K32 22.16GVNEOCPV00
C10LPF5 C2025 01 20.10001223 28 23.333+35 58 05.81 ~1K32 22.24GVNEOCPV00
C10LPF5 C2025 01 20.10564223 28 24.733+35 58 29.46 ~1K32 22.09GVNEOCPV00
C10LPF5 C2025 01 20.11126223 28 26.119+35 58 52.72 ~1K32 22.14GVNEOCPV00
C10LPF5 mC2025 01 20.16165323 28 38.669+36 02 21.80 ~1K4H 22.47GVNEOCPV00
C10LPF5 mC2025 01 20.16244923 28 38.888+36 02 25.15 ~1K4H 22.15GVNEOCPV00
C10LPF5 mC2025 01 20.16325023 28 39.061+36 02 28.97 ~1K4H 22.08GVNEOCPV00
C10LPF5 mC2025 01 20.16404623 28 39.270+36 02 31.56 ~1K4H 22.44GVNEOCPV00
C10LPF5 mC2025 01 22.09550323 36 48.770+38 13 17.10 ~1M32 22.14GVNEOCPV00
C10LPF5 mC2025 01 22.09791523 36 49.410+38 13 26.30 ~1M32 22.37GVNEOCPV00
C10LPF5 mC2025 01 22.10033223 36 50.030+38 13 36.00 ~1M32 VNEOCPV00
C10LPF5 mC2025 01 22.10273923 36 50.600+38 13 45.20 ~1M32 VNEOCPV00
C10LPF5 mC2025 01 24.14280223 45 36.410+40 23 24.40 ~1O42 VNEOCPV00
C10LPF5 mC2025 01 24.14543123 45 37.070+40 23 34.10 ~1O42 VNEOCPV00
C10LPF5 mC2025 01 24.14801023 45 37.760+40 23 43.70 ~1O42 23.12GVNEOCPV00
Station data:
(V00) Kitt Peak-Bok (N31.963125 W111.600190) US/Arizona. Observers T. A.
Pruyne, B. M. Africano, E. J. Christensen, G. A. Farneth, D. C. Fuls, A.
R. Gibbs, A. D. Grauer, H. Gröller, J. A. Johnson, R. A. Kowalski, S. M.
Larson, G. J. Leonard, D. Rankin, R. L. Seaman, F. C. Shelly, K. W.
Wierzchoś. 2.25-m reflector + 4x4K mosaic CCD.
Orbital elements: C10LPF5
Perihelion 2024 Nov 29.32800 +/- 0.581 TT = 7:52:18 (JD 2460643.82800)
Epoch 2025 Jan 24.0 TT = JDT 2460699.5 Earth MOID: 0.2240 Ve: 0.0039
M 25.18925608 +/- 2.0 (J2000 ecliptic) AutoNEOCP
n 0.45245822 +/- 0.0313 Peri. 318.52231 +/- 1.0
a 1.68041697 +/- 0.0774 Node 47.25180 +/- 0.49
e 0.6020703 +/- 0.0168 Incl. 33.93544 +/- 0.29
P 2.178/795.639d H 20.98 G 0.15 U 10.4
q 0.66868768 +/- 0.00258 Q 2.69214626 +/- 0.152
From 15 observations 2025 Jan. 20-24; mean residual 0".15
Residuals in arcseconds: 250120 V00 .08- .03- 250120 V00 .23+ .02- 250122 V00 .27+ .12+ 250120 V00 .03- .15- 250120 V00 .09- .48+ 250122 V00 .16- .08- 250120 V00 .02+ .08+ 250120 V00 .03+ .23- 250124 V00 .05+ .12- 250120 V00 .07- .02- 250122 V00 .24- .08+ 250124 V00 .16- .03- 250120 V00 .01- .08- 250122 V00 .14+ .14- 250124 V00 .11+ .16+ Ephemerides (geocentric): Date (UTC) HH RA Dec delta r elong mag " sig PA ---- -------- ------------ ------------ ------ ------ ----- --- -------- 2025 02 06 19 00 49 20.356 +51 36 30.69 .86391 1.2030 80.8 23.0 14.0 22 2025 02 06 20 00 49 32.940 +51 38 06.44 .86437 1.2034 80.8 23.0 14.1 22 2025 02 06 21 00 49 45.530 +51 39 42.05 .86484 1.2038 80.8 23.0 14.2 22 2025 02 06 22 00 49 58.126 +51 41 17.51 .86530 1.2042 80.9 23.0 14.3 22 2025 02 06 23 00 50 10.728 +51 42 52.81 .86577 1.2046 80.9 23.0 14.4 22 2025 02 07 00 00 50 23.336 +51 44 27.97 .86623 1.2050 80.9 23.0 14.4 22 2025 02 07 01 00 50 35.949 +51 46 02.97 .86669 1.2054 80.9 23.0 14.5 22 2025 02 07 02 00 50 48.569 +51 47 37.82 .86716 1.2058 80.9 23.0 14.6 22 2025 02 07 03 00 51 01.194 +51 49 12.53 .86762 1.2062 80.9 23.0 14.7 23 2025 02 07 04 00 51 13.825 +51 50 47.08 .86809 1.2066 80.9 23.0 14.8 23 2025 02 07 05 00 51 26.462 +51 52 21.48 .86855 1.2071 80.9 23.0 14.9 23 2025 02 07 06 00 51 39.104 +51 53 55.74 .86902 1.2075 80.9 23.0 15.0 23 2025 02 07 07 00 51 51.753 +51 55 29.84 .86948 1.2079 80.9 23.1 15.1 23 2025 02 07 08 00 52 04.407 +51 57 03.80 .86995 1.2083 81.0 23.1 15.2 23 2025 02 07 09 00 52 17.067 +51 58 37.60 .87042 1.2087 81.0 23.1 15.3 23 2025 02 07 10 00 52 29.733 +52 00 11.26 .87088 1.2091 81.0 23.1 15.4 24 2025 02 07 11 00 52 42.405 +52 01 44.77 .87135 1.2095 81.0 23.1 15.5 24 2025 02 07 12 00 52 55.082 +52 03 18.13 .87181 1.2099 81.0 23.1 15.6 24 2025 02 07 13 00 53 07.765 +52 04 51.33 .87228 1.2103 81.0 23.1 15.7 24 2025 02 07 14 00 53 20.455 +52 06 24.40 .87275 1.2107 81.0 23.1 15.8 24 2025 02 07 15 00 53 33.150 +52 07 57.31 .87321 1.2111 81.0 23.1 15.9 24 2025 02 07 16 00 53 45.850 +52 09 30.07 .87368 1.2116 81.0 23.1 16.0 24 2025 02 07 17 00 53 58.557 +52 11 02.69 .87415 1.2120 81.1 23.1 16.1 25 2025 02 07 18 00 54 11.269 +52 12 35.15 .87461 1.2124 81.1 23.1 16.2 25 2025 02 07 19 00 54 23.988 +52 14 07.47 .87508 1.2128 81.1 23.1 16.3 25 2025 02 07 20 00 54 36.712 +52 15 39.64 .87555 1.2132 81.1 23.1 16.4 25 2025 02 07 21 00 54 49.442 +52 17 11.67 .87602 1.2136 81.1 23.1 16.5 25 2025 02 07 22 00 55 02.177 +52 18 43.54 .87648 1.2140 81.1 23.1 16.6 25 2025 02 07 23 00 55 14.919 +52 20 15.27 .87695 1.2144 81.1 23.1 16.7 25 2025 02 08 00 00 55 27.666 +52 21 46.85 .87742 1.2148 81.1 23.1 16.8 25 2025 02 08 01 00 55 40.419 +52 23 18.29 .87789 1.2152 81.1 23.1 16.9 26 2025 02 08 02 00 55 53.178 +52 24 49.57 .87836 1.2156 81.1 23.1 17.0 26 2025 02 08 03 00 56 05.943 +52 26 20.71 .87883 1.2161 81.2 23.1 17.1 26 2025 02 08 04 00 56 18.713 +52 27 51.70 .87929 1.2165 81.2 23.1 17.2 26 2025 02 08 05 00 56 31.490 +52 29 22.55 .87976 1.2169 81.2 23.1 17.3 26 2025 02 08 06 00 56 44.272 +52 30 53.25 .88023 1.2173 81.2 23.1 17.4 26 2025 02 08 07 00 56 57.060 +52 32 23.80 .88070 1.2177 81.2 23.1 17.5 26 2025 02 08 08 00 57 09.854 +52 33 54.20 .88117 1.2181 81.2 23.1 17.6 26 2025 02 08 09 00 57 22.653 +52 35 24.46 .88164 1.2185 81.2 23.1 17.7 27 2025 02 08 10 00 57 35.459 +52 36 54.58 .88211 1.2189 81.2 23.1 17.8 27 2025 02 08 11 00 57 48.270 +52 38 24.54 .88258 1.2193 81.2 23.1 17.9 27 2025 02 08 12 00 58 01.087 +52 39 54.36 .88305 1.2197 81.2 23.1 18.0 27 2025 02 08 13 00 58 13.909 +52 41 24.04 .88352 1.2201 81.3 23.1 18.1 27 2025 02 08 14 00 58 26.738 +52 42 53.57 .88399 1.2205 81.3 23.1 18.2 27 2025 02 08 15 00 58 39.572 +52 44 22.95 .88446 1.2210 81.3 23.1 18.3 27 2025 02 08 16 00 58 52.413 +52 45 52.19 .88493 1.2214 81.3 23.1 18.5 28 2025 02 08 17 00 59 05.259 +52 47 21.28 .88540 1.2218 81.3 23.1 18.6 28 2025 02 08 18 00 59 18.110 +52 48 50.23 .88587 1.2222 81.3 23.1 18.7 28